Temp
-12 -12 -12 -11 -11 -10 -10 -10 -10 -10 -9 -9 -9 -9 -9 -9 -9 -9 -9 -9 -9 -9 -9 -9 -10 -10 -9 -10 -10 -10 -10 -10
-12 -12 -12 -12 -11 -11 -11 -10 -10 -10 -10 -10 -10 -10 -10 -9 -9 -9 -9 -9 -9 -10 -10 -10 -10 -10 -10 -10 -10 -10 -10 -10
-12 -12 -11 -12 -12 -11 -11 -11 -11 -10 -10 -10 -10 -10 -10 -10 -10 -10 -10 -10 -10 -10 -10 -10 -10 -10 -10 -10 -10 -10 -10 -10
-12 -12 -12 -12 -12 -11 -12 -12 -11 -11 -11 -10 -10 -10 -10 -10 -10 -10 -10 -10 -10 -10 -10 -11 -11 -11 -11 -10 -11 -11 -11 -11
-11 -12 -12 -12 -12 -12 -12 -12 -12 -11 -11 -11 -11 -10 -10 -10 -10 -10 -10 -10 -10 -11 -11 -11 -11 -11 -11 -11 -11 -11 -11 -11
-11 -11 -11 -12 -12 -13 -13 -12 -12 -13 -12 -11 -11 -11 -11 -11 -11 -11 -11 -11 -11 -11 -11 -11 -11 -11 -11 -11 -11 -11 -12 -12
-10 -11 -11 -11 -11 -12 -13 -12 -12 -12 -13 -12 -12 -12 -11 -11 -11 -11 -11 -11 -12 -12 -12 -12 -12 -11 -12 -12 -12 -12 -12 -12
-11 -13 -11 -10 -11 -11 -11 -11 -11 -12 -12 -12 -12 -12 -12 -12 -12 -12 -12 -12 -12 -12 -12 -12 -12 -12 -12 -12 -12 -12 -12 -12
-13 -13 -11 -10 -10 -11 -11 -12 -12 -11 -12 -12 -12 -12 -11 -11 -12 -12 -12 -13 -12 -12 -12 -12 -12 -12 -12 -12 -12 -12 -12 -12
-11 -11 -9 -11 -12 -12 -12 -12 -12 -12 -12 -12 -12 -12 -12 -12 -12 -12 -12 -12 -13 -13 -13 -12 -12 -13 -13 -12 -13 -13 -13 -12
-12 -11 -12 -11 -12 -13 -13 -13 -12 -13 -13 -13 -12 -12 -12 -12 -12 -12 -12 -12 -13 -13 -12 -13 -13 -12 -13 -13 -13 -13 -12 -12
-13 -13 -13 -12 -12 -13 -14 -13 -13 -13 -13 -11 -12 -11 -13 -13 -12 -12 -13 -13 -12 -13 -13 -13 -13 -13 -13 -13 -13 -12 -12 -13
-13 -13 -13 -13 -14 -14 -14 -13 -13 -12 -12 -12 -11 -12 -12 -12 -13 -13 -13 -12 -12 -13 -13 -13 -13 -13 -14 -13 -12 -12 -12 -13
-14 -13 -13 -14 -14 -14 -14 -14 -13 -12 -13 -12 -12 -12 -13 -13 -13 -13 -13 -13 -13 -13 -14 -14 -14 -14 -13 -13 -12 -12 -12 -12
-14 -14 -14 -14 -14 -14 -15 -15 -14 -14 -14 -14 -14 -13 -14 -13 -13 -13 -14 -14 -14 -14 -14 -15 -15 -14 -13 -14 -13 -12 -13 -12
-14 -14 -14 -14 -14 -14 -15 -15 -15 -15 -15 -14 -14 -14 -14 -14 -14 -14 -14 -14 -15 -14 -15 -15 -15 -14 -13 -13 -14 -13 -13 -13
-15 -15 -15 -14 -14 -14 -14 -15 -15 -15 -15 -15 -14 -14 -15 -15 -15 -16 -15 -15 -15 -15 -15 -15 -15 -15 -15 -14 -14 -14 -15 -15
-16 -15 -15 -15 -15 -14 -14 -15 -15 -15 -15 -15 -15 -15 -16 -16 -16 -16 -15 -15 -15 -15 -15 -15 -15 -16 -15 -15 -14 -14 -14 -15
-16 -16 -16 -16 -15 -15 -15 -15 -15 -15 -15 -15 -15 -15 -15 -15 -15 -15 -15 -15 -15 -15 -16 -15 -15 -15 -16 -15 -15 -15 -15 -15
Height
5786 5788 5792 5796 5801 5805 5809 5812 5816 5818 5822 5825 5828 5830 5834 5837 5839 5841 5843 5844 5846 5847 5849 5850 5851 5852 5852 5853 5853 5853 5852 5853
5778 5782 5785 5790 5794 5802 5805 5808 5812 5815 5818 5822 5824 5826 5829 5833 5836 5838 5839 5841 5843 5845 5845 5847 5848 5849 5850 5850 5850 5850 5849 5848
5769 5776 5777 5784 5787 5795 5800 5804 5808 5811 5814 5816 5819 5822 5825 5829 5832 5834 5836 5838 5840 5841 5842 5843 5844 5845 5845 5846 5846 5846 5845 5845
5761 5768 5772 5776 5781 5790 5794 5799 5804 5807 5809 5811 5814 5818 5822 5825 5828 5829 5831 5833 5834 5837 5838 5839 5840 5840 5841 5841 5841 5842 5841 5840
5752 5759 5763 5769 5775 5782 5786 5791 5796 5800 5803 5807 5810 5814 5816 5818 5820 5822 5825 5828 5829 5831 5833 5834 5835 5835 5835 5836 5836 5837 5837 5834
5739 5751 5755 5762 5765 5772 5777 5782 5786 5791 5796 5800 5804 5807 5809 5812 5816 5818 5820 5821 5824 5826 5827 5828 5829 5829 5830 5830 5830 5831 5831 5830
5731 5736 5742 5746 5755 5763 5766 5773 5778 5782 5786 5791 5796 5798 5801 5805 5809 5812 5812 5812 5816 5818 5819 5820 5822 5823 5823 5825 5824 5824 5825 5824
5714 5710 5730 5731 5741 5754 5757 5765 5769 5772 5777 5780 5784 5789 5792 5797 5800 5804 5805 5807 5809 5810 5810 5812 5814 5815 5816 5818 5818 5818 5818 5817
5706 5686 5726 5729 5728 5739 5745 5751 5757 5763 5768 5771 5777 5779 5783 5787 5794 5795 5795 5798 5799 5800 5800 5805 5806 5806 5808 5809 5811 5810 5809 5809
5706 5712 5719 5707 5717 5728 5734 5739 5745 5752 5758 5763 5768 5772 5777 5781 5783 5783 5784 5787 5785 5791 5794 5795 5798 5799 5800 5802 5801 5800 5800 5800
5696 5696 5695 5679 5705 5715 5724 5730 5737 5742 5746 5752 5757 5761 5766 5768 5769 5773 5775 5774 5778 5782 5784 5786 5788 5789 5789 5792 5791 5789 5789 5789
5690 5692 5695 5694 5691 5701 5706 5718 5726 5732 5736 5741 5744 5751 5757 5755 5760 5761 5766 5766 5769 5775 5775 5777 5778 5779 5779 5780 5780 5779 5779 5780
5683 5684 5687 5687 5690 5689 5700 5711 5716 5721 5728 5734 5729 5735 5742 5743 5744 5752 5756 5759 5762 5765 5766 5767 5768 5770 5770 5770 5769 5770 5770 5769
5674 5678 5680 5681 5687 5693 5699 5703 5705 5698 5712 5717 5707 5714 5728 5735 5738 5743 5746 5750 5753 5756 5757 5758 5759 5761 5761 5760 5760 5759 5758 5758
5664 5670 5674 5676 5678 5684 5690 5694 5695 5699 5706 5707 5714 5716 5722 5728 5731 5734 5736 5741 5743 5745 5747 5750 5749 5750 5751 5750 5750 5747 5745 5744
5654 5659 5663 5667 5670 5673 5677 5682 5687 5691 5696 5699 5703 5707 5714 5718 5721 5726 5729 5732 5733 5738 5739 5740 5740 5741 5743 5745 5743 5740 5741 5741
5642 5648 5653 5657 5660 5663 5666 5670 5676 5682 5686 5689 5694 5700 5702 5707 5711 5715 5720 5723 5725 5730 5732 5731 5732 5732 5733 5736 5736 5736 5736 5738
5631 5636 5641 5646 5650 5654 5656 5660 5663 5668 5675 5681 5685 5689 5693 5698 5701 5705 5709 5711 5715 5719 5721 5722 5724 5725 5725 5726 5727 5729 5729 5727
5619 5624 5630 5635 5640 5644 5648 5651 5655 5660 5664 5669 5674 5679 5683 5687 5691 5694 5698 5700 5704 5708 5710 5712 5714 5715 5717 5718 5720 5719 5721 5719
Wind_Speed
41 38 38 34 33 31 30 28 28 28 28 26 24 24 23 22 21 19 18 17 16 15 13 12 12 13 14 13 14 16 19 20
46 45 41 40 39 33 31 30 28 28 28 28 27 26 25 23 22 21 20 19 18 16 16 16 15 16 18 18 19 19 20 20
48 49 46 43 44 39 34 33 31 28 29 30 31 30 28 25 24 24 23 22 21 21 20 19 19 20 22 21 20 20 22 21
52 51 52 48 47 42 34 33 32 33 32 33 33 32 30 28 27 27 27 27 27 26 24 22 23 23 22 22 22 23 23 22
52 52 52 49 46 44 38 37 38 39 39 37 34 34 34 36 35 34 32 32 31 29 26 26 27 25 25 25 26 26 26 26
54 52 53 50 47 45 41 46 46 44 42 40 40 39 41 40 39 38 37 36 34 31 30 30 30 28 28 29 30 30 30 29
50 55 57 55 53 51 49 49 43 49 46 47 47 44 45 44 44 43 45 44 38 36 35 33 33 33 34 33 33 34 34 33
58 56 59 56 54 55 54 52 53 52 59 53 51 53 54 52 46 46 48 47 44 41 39 38 37 38 39 38 39 39 39 39
60 38 45 50 52 55 53 54 53 62 52 54 59 57 52 52 48 48 60 51 51 49 46 39 41 42 41 41 42 44 46 42
60 62 48 54 51 56 58 58 55 54 51 50 50 58 58 52 45 43 55 57 57 53 40 42 45 46 45 45 50 52 51 45
37 50 54 44 54 56 62 63 59 56 53 53 51 58 52 52 55 42 42 41 53 43 41 44 43 41 45 41 39 47 50 53
38 49 52 46 53 50 69 48 50 54 55 53 43 55 47 59 39 27 30 31 34 43 40 38 35 38 36 37 40 42 39 46
38 39 48 50 45 47 37 42 51 48 48 50 54 56 51 40 30 32 36 40 42 40 40 38 33 37 37 38 39 41 44 45
41 40 41 51 53 55 55 51 54 38 43 50 45 29 36 46 38 37 39 40 43 46 44 43 41 43 44 44 43 46 49 51
43 42 42 44 52 54 56 59 60 53 49 56 51 50 47 42 41 39 38 39 38 41 43 42 43 45 42 40 45 48 46 58
43 43 44 44 46 53 56 59 58 55 53 55 49 46 39 43 44 43 41 41 39 41 41 40 43 44 47 47 46 51 34 30
43 43 44 46 46 49 55 58 61 63 62 59 56 57 51 49 46 47 48 47 46 41 39 37 38 40 38 40 38 26 34 43
47 46 46 47 49 49 51 55 59 62 63 64 63 64 55 53 54 53 55 53 49 44 42 39 39 39 41 44 45 38 41 42
48 48 48 48 49 51 52 53 56 57 59 60 61 61 58 57 57 56 54 51 49 46 44 45 44 45 42 41 39 33 28 25
Wind_Direction
229 234 215 220 218 215 215 215 217 217 221 222 221 221 223 222 219 219 219 219 220 221 226 234 242 255 264 271 281 289 295 296
222 229 231 217 217 216 221 219 220 222 223 226 226 226 224 226 226 223 221 222 223 226 233 240 251 262 273 281 288 294 296 299
223 221 231 234 214 214 224 226 224 226 227 226 227 228 226 225 225 226 227 229 232 236 244 249 255 265 275 281 289 294 296 299
226 225 227 234 227 214 223 229 233 231 228 227 229 229 228 227 227 229 230 234 238 242 243 248 258 267 273 279 290 296 294 294
224 224 228 230 242 224 222 227 232 235 232 229 230 231 228 227 228 232 236 240 241 242 246 254 259 266 273 278 286 290 289 292
235 223 224 227 234 240 238 228 225 228 234 234 231 231 233 234 237 240 240 242 243 243 249 255 262 265 269 275 280 286 291 288
238 236 224 229 228 232 237 237 242 230 230 238 236 231 233 235 238 240 241 241 241 244 249 256 261 266 268 272 277 282 285 286
242 216 224 224 231 233 242 240 235 243 228 230 233 238 234 235 235 240 244 245 242 245 250 256 262 268 272 275 277 277 279 283
238 203 236 236 232 234 239 240 236 240 247 240 237 237 243 248 240 248 241 242 243 242 247 255 264 267 268 272 274 277 275 275
233 239 256 232 231 234 233 237 238 241 244 245 253 247 254 251 262 265 265 259 238 243 249 257 262 268 271 272 273 271 274 270
236 230 232 224 231 231 230 235 239 241 243 244 251 255 242 253 252 256 258 259 241 241 251 257 266 272 269 274 294 288 278 268
238 235 233 249 237 229 224 228 237 239 247 251 247 255 249 250 245 247 259 265 245 262 268 268 272 274 275 282 286 291 286 284
238 240 240 243 241 242 250 236 238 242 237 245 243 239 234 244 249 261 267 271 274 279 285 284 286 284 284 284 284 285 283 287
232 234 238 240 240 236 236 237 240 230 226 243 239 209 225 247 252 256 262 264 268 274 273 277 280 283 285 283 281 282 285 283
230 231 233 237 240 238 237 238 244 251 248 256 256 248 264 259 250 252 255 260 265 270 271 267 271 277 284 293 297 283 290 279
228 230 232 234 236 238 238 237 243 249 252 254 255 258 253 254 256 262 264 264 265 275 266 268 274 279 283 286 295 289 285 265
226 227 230 232 234 235 237 241 241 243 249 251 251 250 258 264 266 267 267 265 269 268 266 266 273 281 290 288 294 291 297 307
225 224 227 230 232 233 236 238 242 245 243 245 252 259 260 259 262 263 265 266 265 265 267 266 269 280 284 288 291 294 300 305
227 224 225 227 230 233 235 237 240 244 247 249 250 251 254 256 257 258 260 263 265 265 265 267 272 279 281 282 286 293 295 296